Погода в Иванырсе

Россия / Пензенская область     53°33′50″N   45°18′11″E
темп.,
°C
ветер,
м/с
пор.,
м/с
влажн.,
%
обл.,
%
осадки,
мм/ч
давл.,
гПа
погр.,
м
13 апреля, вт
вт1300:00+9вюв378948 0.0 1032107
03:00+8вюв228693 0.0 103334
06:00+7вюв278491 0.0 1033107
09:00+14юв585161 0.0 1032415
12:00+18юв56336 0.0 10311011
15:00+19юв56295 0.0 10301242
18:00+15юв374760 0.0 1029147
21:00+10вюв3760100 0.0 1030111
14 апреля, ср
ср1400:00+8юв386628 0.0 1029126
03:00+7вюв226845 0.0 102925
06:00+6вюв27725 0.0 1028111
09:00+14юв48460 0.0 1026493
12:00+18юв57360 0.0 10251151
15:00+18юв57360 0.0 10231431
18:00+15юв38550 0.0 1022216
21:00+10вюв38765 0.0 1023134
15 апреля, чт
чт1500:00+9юв23845 0.0 102159
03:00+7вюв22875 0.0 102112
06:00+7в228680 0.0 102125
09:00+15вюв245628 0.0 1019410
12:00+19вюв2337100 0.0 10181259
15:00+20юв3436100 0.0 10171776
18:00+17юв22527 0.0 101627
21:00
16 апреля, пт
пт1600:00+10в227363 0.0 101618
03:00+9в227964 0.0 101617
06:00+9всв2379100 0.0 101652
09:00+15в3553100 0.0 1016432
12:00+19в353655 0.0 10161929
15:00+20в443243 0.0 10152601
18:00+15св596278 0.0 1016343
21:00+11св5118077 0.4 1019469
17 апреля, сб
сб1700:00+9св5119040 0.1 1019446
03:00+7всв4119024 0.1 1020396
06:00+6св4108641 0.0 1021433
09:00+9всв586891 0.0 1021554
12:00+13всв675373 0.0 10211106
15:00+13всв67405 0.0 10211368
18:00+10всв59440 0.0 1023928
21:00+5всв27650 0.0 1024149